FW7070 Weather Reports


time (UTC)temp
C
wind
direction
speed
KPH
gust
KPH
rain 1hr
cm
rain 24hr
cm
rain mn
cm
humidity
%
barometer
mb
20260504001631 13 263 22.5 27.4 0.00 0.00 0.00 47 1030.4
20260504001127 13 263 8.0 20.9 0.00 0.00 0.00 49 1030.5
20260504000624 13 263 9.7 16.1 0.00 0.00 0.00 50 1030.3
20260504000121 13 336 8.0 24.1 0.00 0.00 0.00 50 1030.3
20260503235620 13 282 14.5 27.4 0.00 0.00 0.00 50 1030.4
20260503235116 13 283 12.9 25.7 0.00 0.00 0.00 50 1029.9
20260503234614 13 246 17.7 37.0 0.00 0.00 0.00 49 1030.0
20260503234112 12 254 9.7 24.1 0.00 0.00 0.00 51 1030.2
20260503233608 12 243 22.5 24.1 0.00 0.00 0.00 52 1030.1
20260503233059 12 264 11.3 30.6 0.00 0.00 0.00 53 1030.2
20260503232556 12 284 9.7 35.4 0.00 0.00 0.00 55 1030.2
20260503232053 12 266 19.3 29.0 0.00 0.00 0.00 56 1030.5
20260503231551 12 257 25.7 27.4 0.00 0.00 0.00 56 1030.4
20260503231048 12 283 8.0 27.4 0.00 0.00 0.00 56 1030.4
20260503230544 12 266 8.0 43.5 0.00 0.00 0.00 56 1030.6
20260503230042 11 255 12.9 20.9 0.00 0.00 0.00 58 1030.5
20260503225538 11 274 9.7 30.6 0.00 0.00 0.00 59 1030.7
20260503225038 11 257 17.7 25.7 0.00 0.00 0.00 61 1030.9
20260503224536 11 254 11.3 24.1 0.00 0.00 0.00 62 1030.7
20260503224034 11 263 11.3 22.5 0.00 0.00 0.00 60 1030.9
20260503223532 11 271 14.5 32.2 0.00 0.00 0.00 61 1030.8
20260503223027 11 277 16.1 25.7 0.00 0.00 0.00 61 1030.6
20260503222525 11 250 9.7 33.8 0.00 0.00 0.00 61 1030.5
20260503222023 11 236 17.7 20.9 0.00 0.00 0.00 58 1030.6
20260503221521 11 234 6.4 24.1 0.00 0.00 0.00 58 1030.6
20260503221019 12 269 20.9 33.8 0.00 0.00 0.00 58 1030.3
20260503220514 12 245 19.3 25.7 0.00 0.00 0.00 58 1030.8
20260503220011 12 274 16.1 29.0 0.00 0.00 0.00 56 1030.9
20260503215509 12 273 25.7 37.0 0.00 0.00 0.00 55 1030.8
20260503215005 12 262 27.4 38.6 0.00 0.00 0.00 55 1030.9
20260503214504 12 272 22.5 33.8 0.00 0.00 0.00 54 1030.7
20260503214000 12 303 27.4 35.4 0.00 0.00 0.00 54 1030.7
20260503213459 12 238 22.5 51.5 0.00 0.00 0.00 56 1030.8
20260503212954 11 268 30.6 32.2 0.00 0.00 0.00 59 1030.7
20260503212452 11 264 38.6 38.6 0.00 0.00 0.00 59 1030.8
20260503211949 11 244 19.3 43.5 0.00 0.00 0.00 59 1030.7
20260503211447 11 290 14.5 32.2 0.00 0.00 0.00 59 1030.7
20260503210942 11 272 12.9 41.8 0.00 0.00 0.00 59 1030.7
20260503210439 11 262 27.4 41.8 0.00 0.00 0.00 59 1030.6
20260503205934 11 309 12.9 35.4 0.00 0.00 0.00 60 1030.6
20260503205431 11 280 20.9 33.8 0.00 0.00 0.00 58 1030.6
20260503204927 12 286 22.5 24.1 0.00 0.00 0.00 59 1030.7
20260503204425 12 267 12.9 37.0 0.00 0.00 0.00 58 1030.9
20260503203922 12 296 8.0 35.4 0.00 0.00 0.00 58 1030.7
20260503203419 12 273 11.3 41.8 0.00 0.00 0.00 60 1031.1
20260503202916 12 327 14.5 29.0 0.00 0.00 0.00 58 1031.2
20260503202414 12 274 32.2 35.4 0.00 0.00 0.00 58 1030.7
20260503201913 11 268 37.0 41.8 0.00 0.00 0.00 58 1031.1
20260503201409 12 255 27.4 48.3 0.00 0.00 0.00 56 1030.8
20260503200907 12 266 12.9 30.6 0.00 0.00 0.00 58 1031.2
20260503200403 12 266 16.1 33.8 0.00 0.00 0.00 57 1031.6
20260503195900 11 256 12.9 33.8 0.00 0.00 0.00 59 1031.3
20260503195356 11 262 24.1 41.8 0.00 0.00 0.00 60 1031.1
20260503194853 12 313 27.4 40.2 0.00 0.00 0.00 60 1031.5
20260503194350 12 271 9.7 38.6 0.00 0.00 0.00 57 1031.6
20260503193846 11 253 8.0 53.1 0.00 0.00 0.00 58 1031.7
20260503193342 12 280 19.3 30.6 0.00 0.00 0.00 57 1031.4
20260503192838 12 258 12.9 33.8 0.00 0.00 0.00 56 1031.7
20260503192333 12 277 20.9 38.6 0.00 0.00 0.00 56 1031.7
20260503191830 12 243 43.5 45.1 0.00 0.00 0.00 55 1031.9
20260503191327 12 319 30.6 40.2 0.00 0.00 0.00 53 1031.9
20260503190823 12 237 24.1 41.8 0.00 0.00 0.00 55 1032.0
20260503190321 12 295 9.7 32.2 0.00 0.00 0.00 55 1031.9
20260503185818 11 269 20.9 30.6 0.00 0.00 0.00 56 1032.0
20260503185314 11 268 17.7 32.2 0.00 0.00 0.00 57 1032.3
20260503184813 11 266 35.4 38.6 0.00 0.00 0.00 56 1032.4
20260503184310 11 280 17.7 56.3 0.00 0.00 0.00 59 1032.4
20260503183805 11 246 17.7 32.2 0.00 0.00 0.00 57 1032.0
20260503183303 11 263 11.3 38.6 0.00 0.00 0.00 58 1032.3
20260503182800 11 241 20.9 37.0 0.00 0.00 0.00 59 1032.5
20260503182259 11 289 17.7 46.7 0.00 0.00 0.00 59 1032.3
20260503181755 11 264 16.1 25.7 0.00 0.00 0.00 59 1032.4
20260503181253 11 263 16.1 46.7 0.00 0.00 0.00 56 1032.6
20260503180749 11 267 12.9 37.0 0.00 0.00 0.00 56 1032.4
20260503180247 11 274 14.5 38.6 0.00 0.00 0.00 55 1032.4
20260503175743 12 255 24.1 30.6 0.00 0.00 0.00 53 1032.4
20260503175242 12 245 9.7 27.4 0.00 0.00 0.00 51 1032.7
20260503174737 11 271 8.0 30.6 0.00 0.00 0.00 51 1032.7
20260503174236 11 263 11.3 37.0 0.00 0.00 0.00 48 1032.7
20260503173736 12 279 8.0 24.1 0.00 0.00 0.00 48 1032.5
20260503173232 12 295 16.1 19.3 0.00 0.00 0.00 47 1032.7
20260503172729 11 243 16.1 38.6 0.00 0.00 0.00 46 1032.6
20260503172226 11 291 9.7 29.0 0.00 0.00 0.00 48 1033.0
20260503171722 11 246 12.9 24.1 0.00 0.00 0.00 49 1032.8
20260503171221 11 291 12.9 22.5 0.00 0.00 0.00 47 1033.2
20260503170718 11 257 11.3 24.1 0.00 0.00 0.00 49 1033.1
20260503170214 11 259 20.9 27.4 0.00 0.00 0.00 46 1033.1
20260503160135 9 257 17.7 30.6 0.00 0.00 0.00 48 1033.9
20260503150605 8 273 6.4 29.0 0.00 0.00 0.00 71 1034.4
20260503130955 7 264 12.9 25.7 0.00 0.00 0.00 75 1034.7
20260503130453 7 268 19.3 43.5 0.00 0.00 0.00 75 1034.5
20260503110337 3 232 6.4 11.3 0.00 0.00 0.00 79 1034.5
20260503090223 2 246 3.2 3.2 0.00 0.00 0.00 84 1034.5
20260503081151 2 230 4.8 6.4 0.00 0.00 0.00 85 1034.9
20260503080646 2 180 0.0 8.0 0.00 0.00 0.00 85 1035.0
20260503080144 2 228 4.8 6.4 0.00 0.00 0.00 85 1034.9
20260503072620 3 218 4.8 8.0 0.00 0.00 0.00 85 1034.8
20260503072117 4 261 4.8 8.0 0.00 0.00 0.00 84 1034.9
20260503071614 4 291 4.8 8.0 0.00 0.00 0.00 83 1034.8
20260503071111 4 249 3.2 11.3 0.00 0.00 0.00 83 1034.8
20260503070608 4 274 6.4 6.4 0.00 0.00 0.00 83 1034.8
20260503070106 4 326 4.8 11.3 0.00 0.00 0.00 83 1034.9
20260503055026 5 287 3.2 12.9 0.00 0.00 0.00 83 1035.3
20260503054522 5 290 8.0 11.3 0.00 0.00 0.00 83 1035.0
20260503054020 5 264 4.8 14.5 0.00 0.00 0.00 84 1035.1
20260503053517 5 291 4.8 14.5 0.00 0.00 0.00 83 1035.2
20260503053015 5 277 6.4 12.9 0.00 0.00 0.00 83 1035.0
20260503052512 5 276 8.0 16.1 0.00 0.00 0.00 84 1035.1
20260503052008 5 242 0.0 17.7 0.00 0.00 0.00 85 1034.7
20260503051503 4 244 4.8 8.0 0.00 0.00 0.00 85 1034.9
20260503051001 5 264 14.5 17.7 0.00 0.00 0.00 85 1035.3
20260503050456 4 257 8.0 11.3 0.00 0.00 0.00 85 1035.1
20260503045955 5 272 4.8 11.3 0.00 0.00 0.00 84 1035.4
20260503045452 5 271 6.4 14.5 0.00 0.00 0.00 84 1035.2
20260503044949 4 285 4.8 14.5 0.00 0.00 0.00 85 1035.3
20260503044445 4 285 4.8 16.1 0.00 0.00 0.00 85 1035.2
20260503043943 4 246 6.4 8.0 0.00 0.00 0.00 85 1035.6
20260503043439 4 297 4.8 9.7 0.00 0.00 0.00 85 1035.4
20260503042935 5 236 16.1 16.1 0.00 0.00 0.00 84 1035.5
20260503042432 4 234 3.2 11.3 0.00 0.00 0.00 84 1035.3
20260503041929 4 267 6.4 9.7 0.00 0.00 0.00 84 1035.5
20260503041425 4 303 0.0 12.9 0.00 0.00 0.00 84 1035.5
20260503040923 5 269 6.4 11.3 0.00 0.00 0.00 83 1035.5
20260503040420 5 266 6.4 12.9 0.00 0.00 0.00 83 1035.6
20260503035918 5 259 4.8 12.9 0.00 0.00 0.00 84 1035.6
20260503035414 5 214 8.0 11.3 0.00 0.00 0.00 84 1035.4
20260503034912 5 228 8.0 12.9 0.00 0.00 0.00 84 1035.4
20260503034409 5 242 4.8 8.0 0.00 0.00 0.00 84 1035.7
20260503033906 5 269 3.2 9.7 0.00 0.00 0.00 83 1035.6
20260503033404 5 259 6.4 11.3 0.00 0.00 0.00 83 1035.7
20260503032901 5 285 4.8 8.0 0.00 0.00 0.00 82 1035.7
20260503032400 5 304 4.8 12.9 0.00 0.00 0.00 82 1035.4
20260503031857 5 255 6.4 11.3 0.00 0.00 0.00 81 1035.7
20260503031355 5 254 4.8 11.3 0.00 0.00 0.00 81 1035.8
20260503030851 5 255 9.7 14.5 0.00 0.00 0.00 81 1035.5
20260503030347 5 236 4.8 11.3 0.00 0.00 0.00 81 1035.7
20260503025844 5 274 3.2 11.3 0.00 0.00 0.00 81 1036.0
20260503025341 5 274 4.8 11.3 0.00 0.00 0.00 81 1035.8
20260503024838 5 244 8.0 12.9 0.00 0.00 0.00 81 1035.9
20260503024335 5 254 6.4 9.7 0.00 0.00 0.00 81 1035.8
20260503023832 5 269 3.2 11.3 0.00 0.00 0.00 80 1035.8
20260503023329 5 255 8.0 14.5 0.00 0.00 0.00 81 1036.0
20260503022826 5 279 0.0 9.7 0.00 0.00 0.00 82 1036.1
20260503022325 5 249 6.4 6.4 0.00 0.00 0.00 81 1036.1
20260503021822 5 263 6.4 12.9 0.00 0.00 0.00 81 1036.0
20260503021319 5 226 4.8 8.0 0.00 0.00 0.00 81 1036.1
20260503020816 5 339 1.6 14.5 0.00 0.00 0.00 80 1036.1
20260503020314 5 263 8.0 16.1 0.00 0.00 0.00 79 1036.2
20260503015810 5 261 6.4 12.9 0.00 0.00 0.00 80 1036.2
20260503015307 5 251 6.4 11.3 0.00 0.00 0.00 81 1036.1
20260503014803 5 289 11.3 17.7 0.00 0.00 0.00 82 1036.1
20260503014301 5 293 3.2 6.4 0.00 0.00 0.00 82 1036.1
20260503013758 5 231 0.0 14.5 0.00 0.00 0.00 81 1036.2
20260503013255 5 285 4.8 12.9 0.00 0.00 0.00 81 1036.3
20260503012752 5 278 4.8 9.7 0.00 0.00 0.00 81 1036.2
20260503012250 5 230 8.0 11.3 0.00 0.00 0.00 80 1036.1
20260503011746 5 310 4.8 17.7 0.00 0.00 0.00 80 1036.1
20260503011243 5 259 6.4 11.3 0.00 0.00 0.00 80 1036.1
20260503010739 5 280 6.4 9.7 0.00 0.00 0.00 80 1036.1
20260503010236 5 257 4.8 14.5 0.00 0.00 0.00 80 1036.1
20260503005734 5 266 6.4 11.3 0.00 0.00 0.00 80 1036.0
20260503005231 5 223 3.2 9.7 0.00 0.00 0.00 79 1036.2
20260503004727 5 277 11.3 16.1 0.00 0.00 0.00 79 1035.8
20260503004226 5 259 8.0 11.3 0.00 0.00 0.00 79 1036.0
20260503003722 5 262 6.4 16.1 0.00 0.00 0.00 79 1035.8
20260503003219 5 260 6.4 17.7 0.00 0.00 0.00 78 1036.0
20260503002716 5 262 4.8 14.5 0.00 0.00 0.00 79 1035.9
20260503002213 5 268 6.4 12.9 0.00 0.00 0.00 79 1036.0